Location: Val-d'Or
(48.1170°N, 77.7670°W)
Time: 17:14:19
(UTC-05:00)

ISS - Visible Passes

Search period start: 16 December 2018 00:00
Search period end: 26 December 2018 00:00
Orbit: 401 x 408 km, 51.6° (Epoch: 17 December)

Date Brightness Start Highest point End Pass type
(mag) Time Alt. Az. Time Alt. Az. Time Alt. Az.
22 Dec -0.7 07:15:15 10° S 07:17:43 20° SE 07:20:11 10° E visible
23 Dec -0.4 06:24:26 10° SSE 06:25:41 12° SE 06:26:57 10° ESE visible
24 Dec -2.2 07:06:21 10° SW 07:09:26 38° SE 07:12:30 10° ENE visible
25 Dec -1.4 06:14:36 10° SSW 06:17:17 23° SE 06:19:58 10° E visible
